Location: Unspecified
(0.0000°N, 0.0000°E)
Time: 11:34:45
(UTC+00:00)

Envisat - Pass Details

Date: 30 May 2020
Orbit: 764 x 766 km, 98.1° (Epoch: 30 May)

Event Time Altitude Azimuth Distance (km) Brightness Sun altitude
Rises 05:05:28 0° 39° (NE) 3,216 7.4 -12.1°
Reaches altitude 10° 05:08:20 10° 56° (NE) 2,293 6.9 -11.4°
Maximum altitude 05:11:59 20° 102° (ESE) 1,705 5.6 -10.6°
Drops below altitude 10° 05:15:38 10° 149° (SSE) 2,301 5.6 -9.7°
Sets 05:18:29 0° 165° (SSE) 3,230 6.2 -9.1°
